• în România
  • Lista ţărilor
  • Pe 7 zile
  • Temperatura apei
  • Hartă satelitară
  • Meteo pe hartă
  • Widget-uri
  • user-avatar
    Intrare

    Meteo pe oră la Mendoza

    Astăzi, 30 Aprilie, Duminică

    Timp Temperatura Precipitaţii Vânt Presiune Umiditate
    00:00 +16°C° 0 mm 1 m/s 699 mmHg 52%
    01:00 +16°C° 0 mm 1 m/s 699 mmHg 52%
    02:00 +15°C° 0 mm 1 m/s 699 mmHg 52%
    03:00 +15°C° 0 mm 1 m/s 699 mmHg 53%
    04:00 +15°C° 0 mm 1 m/s 698 mmHg 53%
    05:00 +15°C° 0 mm 1 m/s 699 mmHg 52%
    06:00 +15°C° 0 mm 1 m/s 699 mmHg 51%
    07:00 +15°C° 0 mm 1 m/s 699 mmHg 51%
    08:00 +19°C° 0 mm 1 m/s 699 mmHg 44%
    09:00 +20°C° 0 mm 2 m/s 700 mmHg 38%
    10:00 +23°C° 0 mm 2 m/s 700 mmHg 31%
    11:00 +24°C° 0 mm 2 m/s 700 mmHg 29%
    12:00 +25°C° 0 mm 3 m/s 699 mmHg 27%
    13:00 +26°C° 0 mm 3 m/s 699 mmHg 25%
    14:00 +26°C° 0 mm 3 m/s 699 mmHg 27%
    15:00 +25°C° 0 mm 3 m/s 699 mmHg 29%
    16:00 +25°C° 0 mm 3 m/s 698 mmHg 30%
    17:00 +23°C° 0 mm 2 m/s 698 mmHg 34%
    18:00 +21°C° 0 mm 2 m/s 698 mmHg 38%
    19:00 +19°C° 0 mm 2 m/s 698 mmHg 42%
    20:00 +19°C° 0 mm 2 m/s 698 mmHg 43%
    21:00 +18°C° 0 mm 2 m/s 698 mmHg 44%
    22:00 +17°C° 0 mm 2 m/s 699 mmHg 45%
    23:00 +17°C° 0 mm 2 m/s 698 mmHg 45%

    Mâine, 1 Mai, Luni

    Timp Temperatura Precipitaţii Vânt Presiune Umiditate
    00:00 +18°C° 0 mm 1 m/s 698 mmHg 44%
    01:00 +16°C° 0 mm 1 m/s 698 mmHg 44%
    02:00 +16°C° 0 mm 1 m/s 698 mmHg 44%
    03:00 +15°C° 0 mm 2 m/s 697 mmHg 43%
    04:00 +15°C° 0 mm 2 m/s 697 mmHg 42%
    05:00 +15°C° 0 mm 2 m/s 697 mmHg 41%
    06:00 +15°C° 0 mm 2 m/s 697 mmHg 41%
    07:00 +16°C° 0 mm 2 m/s 697 mmHg 40%
    08:00 +18°C° 0 mm 2 m/s 698 mmHg 34%
    09:00 +21°C° 0 mm 3 m/s 698 mmHg 29%
    10:00 +24°C° 0 mm 3 m/s 699 mmHg 23%
    11:00 +25°C° 0 mm 3 m/s 698 mmHg 22%
    12:00 +26°C° 0 mm 4 m/s 698 mmHg 20%
    13:00 +27°C° 0 mm 4 m/s 697 mmHg 19%
    14:00 +27°C° 0 mm 4 m/s 697 mmHg 21%
    15:00 +26°C° 0 mm 3 m/s 696 mmHg 22%
    16:00 +25°C° 0 mm 3 m/s 696 mmHg 24%
    17:00 +24°C° 0 mm 3 m/s 696 mmHg 27%
    18:00 +21°C° 0 mm 3 m/s 696 mmHg 30%
    19:00 +19°C° 0 mm 2 m/s 696 mmHg 33%
    20:00 +19°C° 0 mm 2 m/s 696 mmHg 36%
    21:00 +18°C° 0 mm 2 m/s 696 mmHg 38%
    22:00 +17°C° 0 mm 2 m/s 696 mmHg 41%
    23:00 +17°C° 0 mm 2 m/s 696 mmHg 42%

    Poimâine, 2 Mai, Marţi

    Timp Temperatura Precipitaţii Vânt Presiune Umiditate
    00:00 +16°C° 0 mm 2 m/s 696 mmHg 43%
    01:00 +16°C° 0 mm 2 m/s 695 mmHg 45%
    02:00 +16°C° 0 mm 2 m/s 695 mmHg 46%
    03:00 +15°C° 0 mm 2 m/s 695 mmHg 47%
    04:00 +15°C° 0 mm 2 m/s 695 mmHg 48%
    05:00 +15°C° 0 mm 2 m/s 695 mmHg 49%
    06:00 +15°C° 0 mm 2 m/s 695 mmHg 49%
    07:00 +15°C° 0 mm 2 m/s 696 mmHg 50%
    08:00 +18°C° 0 mm 2 m/s 696 mmHg 43%
    09:00 +20°C° 0 mm 2 m/s 697 mmHg 36%
    10:00 +24°C° 0 mm 2 m/s 697 mmHg 29%
    11:00 +24°C° 0 mm 2 m/s 697 mmHg 26%
    12:00 +25°C° 0 mm 2 m/s 697 mmHg 24%
    13:00 +26°C° 0 mm 3 m/s 697 mmHg 21%
    14:00 +26°C° 0 mm 3 m/s 697 mmHg 23%
    15:00 +25°C° 0 mm 3 m/s 697 mmHg 24%
    16:00 +25°C° 0 mm 3 m/s 697 mmHg 25%
    17:00 +22°C° 0 mm 3 m/s 698 mmHg 29%
    18:00 +21°C° 0 mm 3 m/s 699 mmHg 33%
    19:00 +19°C° 0 mm 3 m/s 699 mmHg 37%
    20:00 +19°C° 0 mm 3 m/s 700 mmHg 38%
    21:00 +18°C° 0 mm 3 m/s 700 mmHg 40%
    22:00 +17°C° 0 mm 3 m/s 700 mmHg 42%
    23:00 +17°C° 0 mm 3 m/s 700 mmHg 46%

    3 Mai, Miercuri

    Timp Temperatura Precipitaţii Vânt Presiune Umiditate
    00:00 +17°C° 0 mm 3 m/s 700 mmHg 50%
    01:00 +16°C° 0 mm 3 m/s 700 mmHg 54%
    02:00 +16°C° 0 mm 3 m/s 700 mmHg 56%
    03:00 +14°C° 0 mm 3 m/s 700 mmHg 59%
    04:00 +15°C° 0 mm 2 m/s 700 mmHg 61%
    05:00 +15°C° 0 mm 2 m/s 700 mmHg 61%
    06:00 +15°C° 0 mm 2 m/s 700 mmHg 61%
    07:00 +15°C° 0 mm 2 m/s 701 mmHg 61%
    08:00 +17°C° 0 mm 2 m/s 701 mmHg 55%
    09:00 +19°C° 0 mm 2 m/s 701 mmHg 49%
    10:00 +21°C° 0 mm 2 m/s 701 mmHg 44%
    11:00 +23°C° 0 mm 2 m/s 700 mmHg 41%
    12:00 +24°C° 0 mm 3 m/s 700 mmHg 39%
    13:00 +25°C° 0 mm 3 m/s 699 mmHg 37%
    14:00 +24°C° 0 mm 3 m/s 699 mmHg 39%
    15:00 +24°C° 0 mm 3 m/s 698 mmHg 42%
    16:00 +24°C° 0 mm 3 m/s 698 mmHg 44%
    17:00 +21°C° 0 mm 3 m/s 698 mmHg 49%
    18:00 +20°C° 0 mm 2 m/s 698 mmHg 55%
    19:00 +19°C° 0 mm 2 m/s 698 mmHg 60%
    20:00 +18°C° 0 mm 2 m/s 697 mmHg 59%
    21:00 +18°C° 0 mm 2 m/s 697 mmHg 58%
    22:00 +18°C° 0 mm 2 m/s 697 mmHg 57%
    23:00 +17°C° 0 mm 2 m/s 696 mmHg 55%

    4 Mai, Joi

    Timp Temperatura Precipitaţii Vânt Presiune Umiditate
    00:00 +17°C° 0 mm 2 m/s 696 mmHg 53%
    01:00 +16°C° 0 mm 2 m/s 695 mmHg 51%
    02:00 +16°C° 0 mm 2 m/s 695 mmHg 50%
    03:00 +15°C° 0 mm 2 m/s 694 mmHg 49%
    04:00 +15°C° 0 mm 2 m/s 694 mmHg 48%
    05:00 +15°C° 0 mm 2 m/s 694 mmHg 48%
    06:00 +15°C° 0 mm 2 m/s 695 mmHg 48%
    07:00 +16°C° 0 mm 2 m/s 695 mmHg 48%
    08:00 +18°C° 0 mm 2 m/s 695 mmHg 43%
    09:00 +20°C° 0 mm 3 m/s 695 mmHg 38%
    10:00 +24°C° 0 mm 3 m/s 695 mmHg 33%
    11:00 +25°C° 0 mm 3 m/s 695 mmHg 32%
    12:00 +26°C° 0 mm 3 m/s 694 mmHg 30%
    13:00 +27°C° 0 mm 4 m/s 694 mmHg 29%
    14:00 +26°C° 0 mm 3 m/s 694 mmHg 31%
    15:00 +26°C° 0 mm 3 m/s 693 mmHg 33%
    16:00 +25°C° 0 mm 2 m/s 693 mmHg 36%
    17:00 +24°C° 0 mm 2 m/s 694 mmHg 40%
    18:00 +21°C° 0 mm 2 m/s 694 mmHg 44%
    19:00 +21°C° 0 mm 1 m/s 694 mmHg 48%
    20:00 +19°C° 0 mm 2 m/s 694 mmHg 50%
    21:00 +19°C° 0 mm 2 m/s 694 mmHg 52%
    22:00 +18°C° 0 mm 2 m/s 694 mmHg 54%
    23:00 +18°C° 0 mm 2 m/s 694 mmHg 55%

    5 Mai, Vineri

    Timp Temperatura Precipitaţii Vânt Presiune Umiditate
    00:00 +17°C° 0 mm 2 m/s 694 mmHg 56%
    01:00 +17°C° 0 mm 2 m/s 694 mmHg 57%
    02:00 +17°C° 0 mm 2 m/s 694 mmHg 57%
    03:00 +16°C° 0 mm 2 m/s 693 mmHg 58%
    04:00 +16°C° 0 mm 2 m/s 693 mmHg 58%
    05:00 +16°C° 0 mm 2 m/s 693 mmHg 58%
    06:00 +16°C° 0 mm 2 m/s 693 mmHg 57%
    07:00 +16°C° 0 mm 2 m/s 694 mmHg 57%
    08:00 +19°C° 0 mm 2 m/s 694 mmHg 52%
    09:00 +21°C° 0 mm 3 m/s 694 mmHg 46%
    10:00 +24°C° 0 mm 3 m/s 694 mmHg 40%
    11:00 +25°C° 0 mm 3 m/s 693 mmHg 36%
    12:00 +26°C° 0 mm 3 m/s 693 mmHg 32%
    13:00 +28°C° 0 mm 4 m/s 692 mmHg 29%
    14:00 +27°C° 0 mm 3 m/s 692 mmHg 31%
    15:00 +26°C° 0 mm 3 m/s 692 mmHg 33%
    16:00 +26°C° 0 mm 2 m/s 692 mmHg 35%
    17:00 +24°C° 0 mm 2 m/s 693 mmHg 39%
    18:00 +22°C° 0 mm 3 m/s 693 mmHg 42%
    19:00 +20°C° 0 mm 3 m/s 693 mmHg 45%
    20:00 +20°C° 0 mm 3 m/s 693 mmHg 46%
    21:00 +19°C° 0 mm 3 m/s 693 mmHg 46%
    22:00 +19°C° 0 mm 3 m/s 693 mmHg 46%
    23:00 +19°C° 0 mm 3 m/s 693 mmHg 48%
    Arată mai mult